www.pogodaiklimat.ru

Погода и климат >> Архив погоды >> Бразилия >> Эспириту-Санту >> Витория


ПОГОДА в Витории

  • Прогноз погоды в Витории
  • Монитор погоды в Витории

АРХИВ ПОГОДЫ в Витории

Время (UTC), дата Ветер
(напр.,м/с)
 
Видим.   Явления Облачность Т
(С)
Тd
(С)
f
(%)
Тe
(С)
Тes
(С)
Комфортность P
(гПа)
Po
(гПа)
Тmin
(С)
Tmax
(С)
R
(мм)
R24
(мм)
S
(см)
09 18.05 ЮЗ 2 3000 м сильн. дождь 10/10 100 м
[Sc]
+21.4 +20.9 97 +27 +27 душно 1016.3 1015.8
12 18.05 ЮВ 5 4000 м дождь 10/10 200 м
[Cu med, cong]
+20.9 +20.4 97 +26 +26 душно 1018.4 1017.9 +21.4 170
15 18.05 СВ 2 1800 м сильн. дождь 10/10 50 м
[Sc]
+21.5 +21.0 97 +27 +27 душно 1017.9 1017.4
18 18.05 14 км дымка {дождь} н/о +23.7 +21.0 85 +30 +30 очень
душно
1015.5 1015.0 31
21 18.05 З 2 20 км 8/8 300 м
[Sc]
+23.0 +21.4 91 +31 +31 очень
душно
1015.8 1015.3
00 19.05 штиль 0 20 км 6/6 1000 м
[Sc]
+21.4 +20.9 97 +27 +27 душно 1017.1 1016.6 +23.9
03 19.05 СЗ 1 20 км 9/9 600 м
[Sc]
+22.2 +21.5 96 +29 +29 очень
душно
1016.8 1016.3
06 19.05 Ю 4 20 км 9/9 600 м
[Sc]
+22.5 +20.8 90 +29 +29 очень
душно
1015.7 1015.2
09 19.05 З 3 20 км в посл. час дождь 9/9 600 м
[Sc]
+21.8 +20.6 93 +28 +28 душно 1016.5 1016.0
12 19.05 ЮЗ 6 20 км {дождь} 3/3 300 м
[Sc]
+24.9 +21.2 80 +31 +33 очень
душно
1017.9 1017.4 +21.4 31
15 19.05 Ю 7 20 км 4/4 600 м
[Cu med, cong]
+27.3 +20.4 66 +34 +36 очень
душно
1016.4 1015.9
18 19.05 ЮЗ 7 20 км 4/4 600 м
[Cu hum]
+27.1 +21.0 69 +34 +35 очень
душно
1014.3 1013.8
21 19.05 Ю 6 20 км 1/1 600 м
[Sc]
+24.4 +20.4 78 +30 +30 очень
душно
1014.9 1014.4
00 20.05 З 2 20 км ясно +23.6 +19.8 79 +29 +29 душно 1015.9 1015.4 +27.6
03 20.05 СЗ 2 20 км ясно +21.0 +19.7 92 +27 +27 душно 1015.9 1015.4
06 20.05 С 2 20 км ясно +20.0 +18.7 92 +24 +24 комфорт 1014.5 1014.0
09 20.05 С 2 20 км ясно +18.8 +17.9 95 +21 +21 комфорт 1014.8 1014.3
12 20.05 З 2 20 км ясно +25.3 +20.4 74 +31 +38 очень
душно
1016.6 1016.1 +18.8
15 20.05 Ю 5 20 км 1/1 1000 м
[Cu hum]
+26.9 +21.1 71 +34 +40 очень
душно
1015.5 1015.0
18 20.05 ЮВ 6 20 км ясно +26.2 +21.5 75 +33 +35 очень
душно
1014.1 1013.6
21 20.05 Ю 2 20 км ясно +25.1 +21.3 79 +32 +32 очень
душно
1014.9 1014.4
00 21.05 З 2 20 км ясно +22.8 +21.3 91 +30 +30 очень
душно
1016.3 1015.8 +27.0
03 21.05 СЗ 1 20 км ясно +20.9 +20.4 97 +27 +27 душно 1016.2 1015.7
06 21.05 штиль 0 20 км ясно +20.2 +19.7 97 +24 +24 комфорт 1015.1 1014.6
09 21.05 ЮЗ 2 20 км ясно +20.1 +19.5 96 +24 +24 комфорт 1015.4 1014.9
12 21.05 ЮВ 3 20 км ясно +25.1 +20.9 78 +32 +37 очень
душно
1017.3 1016.8 +20.1
15 21.05 ЮВ 5 20 км 1/1 600 м
[Cu hum]
+26.5 +21.6 74 +34 +40 очень
душно
1016.2 1015.7
18 21.05 Ю 5 20 км 3/3 600 м
[Cu med, cong]
+26.7 +21.3 72 +34 +36 очень
душно
1014.3 1013.8
21 21.05 ЮВ 2 20 км 4/1 600 м
[Sc diur, vesp Ac cuf]
+25.0 +22.0 83 +32 +32 очень
душно
1015.1 1014.6
00 22.05 СЗ 2 20 км 4/3 600 м
[Sc Ac trans]
+22.6 +21.6 94 +30 +30 очень
душно
1016.3 1015.8 +26.8
03 22.05 СЗ 1 20 км 5/5 600 м
[Sc]
+22.2 +21.4 95 +29 +29 очень
душно
1016.1 1015.6
06 22.05 З 2 20 км 6/6 600 м
[Sc]
+21.9 +21.2 96 +28 +28 душно 1014.8 1014.3
09 22.05 СЗ 1 20 км ясно +20.5 +20.1 98 +26 +26 душно 1015.0 1014.5
12 22.05 С 2 20 км ясно +26.5 +21.8 75 +34 +41 очень
душно
1016.2 1015.7 +20.5
15 22.05 Ю 4 20 км 1/1 1000 м
[Cu med, cong]
+28.6 +23.2 73 +39 +47 очень
душно
1015.0 1014.5
18 22.05 СВ 3 20 км 1/1 1000 м
[Cu med, cong]
+29.4 +23.0 68 +39 +42 очень
душно
1012.8 1012.3
21 22.05 В 2 20 км 1/1 1500 м
[Sc diur, vesp]
+26.5 +23.6 84 +36 +36 очень
душно
1013.5 1013.0
00 23.05 З 1 20 км 6/6 1000 м
[Sc]
+25.5 +24.0 91 +35 +35 очень
душно
1015.4 1014.9 +29.6
03 23.05 С 1 20 км 9/4 300 м
[Sc Ac trans]
+25.2 +22.9 87 +33 +33 очень
душно
1015.4 1014.9
06 23.05 СВ 1 20 км 6/3 600 м
[Sc As trans]
+22.9 +22.0 95 +31 +31 очень
душно
1014.1 1013.6
09 23.05 СЗ 2 9000 м дымка 5/1 600 м
[Cu hum Ci fib]
+22.1 +21.6 97 +29 +29 очень
душно
1014.8 1014.3
12 23.05 С 4 20 км 4/1 600 м
[Sc Ci fib]
+26.9 +22.2 75 +35 +39 очень
душно
1016.3 1015.8 +22.1
15 23.05 СВ 5 20 км 3/3 1000 м
[Cu hum]
+29.8 +21.6 61 +38 +43 очень
душно
1014.9 1014.4
18 23.05 В 6 20 км 1/1 1000 м
[Cu med, cong]
+28.6 +23.4 73 +39 +40 очень
душно
1012.2 1011.7
21 23.05 СВ 5 20 км 4/0
[Ci fib]
+26.2 +23.1 83 +35 +35 очень
душно
1012.7 1012.2
00 24.05 С 3 20 км ясно +25.2 +22.2 83 +33 +33 очень
душно
1014.1 1013.6 +30.1
03 24.05 С 3 20 км 1/1 600 м
[Sc]
+24.6 +22.1 86 +32 +32 очень
душно
1014.2 1013.7
06 24.05 З 1 20 км ясно +21.9 +20.9 94 +28 +28 душно 1013.2 1012.7
09 24.05 С 1 20 км 4/1 600 м
[Sc Ci fib]
+22.5 +21.0 91 +29 +29 очень
душно
1013.3 1012.8
12 24.05 С 5 20 км 6/0
[Ci fib]
+27.1 +20.0 65 +33 +36 очень
душно
1014.5 1014.0 +21.9
15 24.05 С 7 20 км 4/1 600 м
[Sc Ci fib]
+30.0 +19.6 54 +36 +39 очень
душно
1012.6 1012.1
18 24.05 С 6 20 км 1/1 600 м
[Sc]
+31.1 +20.7 54 +38 +40 очень
душно
1010.7 1010.2
21 24.05 СВ 6 20 км 4/0
[Ci fib]
+26.8 +23.3 81 +36 +36 очень
душно
1011.4 1010.9
00 25.05 С 3 20 км ясно +25.5 +22.7 85 +34 +34 очень
душно
1012.8 1012.3 +31.1
03 25.05 С 3 20 км 4/0
[Ci fib]
+24.8 +22.3 86 +32 +32 очень
душно
1012.1 1011.6
06 25.05 СВ 3 20 км 4/0
[Ci fib]
+24.8 +21.8 83 +32 +32 очень
душно
1011.0 1010.5

 

Местоположение метеостанции Витория (Эспириту-Санту, Бразилия): широта -20.26 долгота -40.28 высота над уровнем моря 4 м.

В архиве по умолчанию представлена погода в Витории за последнюю неделю. Архивные данные за месяц целиком и за предыдущие месяцы, начиная с января 2011 года, Вы можете получить, выбрав интересующий диапазон дат из раскрывающегося списка и нажав кнопку "Ввод!".


*Определитесь, кто Вы:
робот инопланетянин человек

Внимание! Время в таблицах - всемирное. Для получения местного времени необходимо прибавить поправку, которая равна -3 ч.

Смотрите также архив погоды в соседних городах и на ближайших метеорологических станциях:

Погода в Витория-Гастейсе (Эспириту-Санту, Бразилия) (8 км)
Погода в Санта-Терезе (Эспириту-Санту, Бразилия) (44 км)
Погода в Алфреду-Шависе (Эспириту-Санту, Бразилия) (62 км)
Погода в Афонсу-Клаудио (Эспириту-Санту, Бразилия) (88 км)
Погода в Линьярисе (Эспириту-Санту, Бразилия) (104 км)
Погода в Айморесе (Минас-Жерайс, Бразилия) (118 км)
Погода в Айморесе (Минас-Жерайс, Бразилия) (119 км)
Погода в Президенти-Кеннеди (Эспириту-Санту, Бразилия) (122 км)
Погода в Алегри (Эспириту-Санту, Бразилия) (136 км)
Погода в Нова-Венесии (Эспириту-Санту, Бразилия) (174 км)

Пояснения к столбцам:

Ветер - указаны скорость ветра в м/с - средняя за 10 мин, порывы в срок и между сроками (в фигурных скобках) и направление, откуда дует ветер: С - северный, СВ - северо-восточный, В - восточный, ЮВ - юго-восточный, Ю - южный, ЮЗ - юго-западный, З - западный, СЗ - северо-западный.
Видимость - горизонтальная дальность видимости в метрах или километрах. При видимости от 1 до 10 км при отсутствии осадков обычно наблюдается дымка, при ухудшении видимости до 1 км и менее - туман. В сухую погоду видимость может ухудшаться дымом, пылью или мглою.
Явления - указаны атмосферные явления, наблюдавшиеся в срок или в последний час перед сроком; фигурными скобками обозначены явления, наблюдавшиеся между сроками (за 1-3 часа до срока); квадратными скобками обозначены град или гололедные отложения с указанием их диаметра в мм.
Облачность - указаны через наклонную черту общая и нижняя облачность в баллах и высота нижней границы облаков в метрах; квадратными скобками обозначены формы облаков: Ci - перистые, Cs - перисто-слоистые, Cc - перисто-кучевые, Ac - высококучевые, As - высокослоистые, Sc - слоисто-кучевые, Ns - слоисто-дождевые, Cu - кучевые, Cb - кучево-дождевые. Подробнее классификацию облаков см. в Атласе облаков (PDF).
T - Температура воздуха - температура, измеренная на высоте 2 м над землей.
Td - Температура точки росы - температура, при понижении до которой содержащийся в воздухе водяной пар достигнет насыщения.
f - Относительная влажность воздуха - влажноcть воздуха, измеренная на высоте 2 м над землей.
Te - Эффективная температура - температура, которую ощущает одетый по сезону человек в тени. Характеристика душности погоды. При расчете учитывается влияние влажности воздуха и скорости ветра на теплоощущения человека.
Tes - Эффективная температура на солнце - температура, которую ощущает человек, с поправкой на солнечный нагрев. Характеристика знойности погоды. Зависит от высоты солнца над горизонтом, облачности и скорости ветра. Ночью, в пасмурную погоду, а также при ветре 12 м/с и более поправка равна нулю.
P - Атмосферное давление - приведенное к уровню моря атмосферное давление.
Po - Атмосферное давление - измеренное на уровне метеостанции атмосферное давление.
Tmin - Минимальная температура - минимум температуры воздуха на высоте 2 м над землей.
Tmax - Максимальная температура - максимум температуры воздуха на высоте 2 м над землей.
R - Количество осадков - Количество выпавших осадков за период времени, мм. При наведении курсора мыши на число - период времени, за который выпало указанное количество осадков.
R24 - Количество осадков - Количество выпавших осадков за 24 часа, мм.
S - Снежный покров - Высота снежного покрова, см. При наведении курсора мыши на число - состояние снежного покрова и степень покрытия местности в баллах.